"Time","Temp","Dewpoint","Humidity","Pressure","Direction","Speed","Gust","Precip","PrecipRate"
"00:04:58","56.6","54.3","92","29.96","9","0","0","0.00","0.00"
"00:09:56","56.6","54.1","91.5","29.96","9","0","0","0.00","0.00"
"00:14:56","56.3","53.8","91.3","29.96","9","0","0","0.00","0.00"
"00:19:59","56","53.7","92","29.95","9","0","0","0.00","0.00"
"00:24:58","55.8","53.5","92","29.95","9","0","0","0.00","0.00"
"00:29:57","55.6","53.4","92.3","29.95","9","0","0","0.00","0.00"
"00:34:56","55.5","53.5","93","29.95","9","0","0","0.00","0.00"
"00:39:56","55.5","53.5","93","29.95","9","0","0","0.00","0.00"
"00:44:55","55.4","53.4","93","29.95","9","0","0","0.00","0.00"
"00:49:58","55.3","53.6","93.8","29.95","9","0.3","2.4","0.00","0.00"
"00:54:57","55.6","54","94.5","29.95","9","0.2","1.2","0.00","0.00"
"00:59:56","55.9","54.4","94.5","29.96","9","0.1","2.4","0.00","0.00"
"01:04:56","55.9","54.2","94","29.96","9","0.2","2.4","0.00","0.00"
"01:09:59","55.7","54","94","29.96","9","0","1.2","0.00","0.00"
"01:14:57","55.8","54.3","94.6","29.96","9","0.2","2.4","0.00","0.00"
"01:19:56","56","54.6","95","29.95","9","0","1.2","0.00","0.00"
"01:24:59","56.1","54.7","95","29.95","9","0.2","2.4","0.00","0.00"
"01:29:58","56","54.3","94","29.95","9","0","1.2","0.00","0.00"
"01:34:57","55.9","54.3","94.1","29.95","9","0.1","1.2","0.00","0.00"
"01:39:57","55.9","54.4","94.6","29.95","9","0","1.2","0.00","0.00"
"01:44:59","55.8","54.1","94","29.95","13","0.7","4.8","0.00","0.00"
"01:49:58","55.5","52.8","90.6","29.95","4","1","6","0.00","0.00"
"01:54:57","55.8","51.7","86.2","29.95","346","1","4.8","0.00","0.00"
"01:59:56","56.4","50.3","79.9","29.95","345","1.4","7.2","0.00","0.00"
"02:04:56","57.1","49.7","76.3","29.95","352","1.8","6.9","0.00","0.00"
"02:09:59","57.7","49","72.8","29.95","335","2","6","0.00","0.00"
"02:14:58","58.1","48.7","70.9","29.95","329","1.1","5.8","0.00","0.00"
"02:19:57","58.2","48.1","69.1","29.95","356","0.8","6","0.00","0.00"
"02:24:56","58.2","47.4","67.1","29.95","354","1.2","5.8","0.00","0.00"
"02:29:58","58.2","46.6","65.5","29.95","342","1.3","4.8","0.00","0.00"
"02:34:57","58","46.2","64.7","29.95","336","1.3","4.8","0.00","0.00"
"02:39:58","57.9","45.7","63.7","29.95","346","0.7","3.6","0.00","0.00"
"02:44:57","57.7","45.3","63.2","29.95","346","0","1.2","0.00","0.00"
"02:49:56","57.4","45.4","64.1","29.95","346","0.1","1.2","0.00","0.00"
"02:54:59","57.1","45.3","64.8","29.95","346","0.1","1.2","0.00","0.00"
"02:59:58","56.6","45.2","65.5","29.95","346","0.1","1.2","0.00","0.00"
"03:04:56","56.2","45.3","66.7","29.95","346","0","1.2","0.00","0.00"
"03:09:56","55.9","45.5","67.9","29.95","346","0","0","0.00","0.00"
"03:14:56","55.5","45.8","69.8","29.95","346","0.1","1.2","0.00","0.00"
"03:19:58","54.9","45.4","70.3","29.94","345","0.2","2.4","0.00","0.00"
"03:24:57","54.4","45.3","71.3","29.94","345","0.5","2.3","0.00","0.00"
"03:29:56","54","45.4","72.5","29.95","345","0","0","0.00","0.00"
"03:34:59","53.6","45.5","74.1","29.95","345","0.6","2.4","0.00","0.00"
"03:39:57","53.1","45.6","75.5","29.95","345","0.3","1.2","0.00","0.00"
"03:44:57","52.7","45.6","76.8","29.96","345","1","3.6","0.00","0.00"
"03:49:58","52.2","45.5","78","29.96","345","0","1.2","0.00","0.00"
"03:54:55","51.9","45.3","78.1","29.96","345","0","0","0.00","0.00"
"03:59:59","51.7","45.4","79","29.96","345","0","0","0.00","0.00"
"04:04:56","51.5","45.2","79","29.95","345","0","0","0.00","0.00"
"04:09:59","51.5","45.2","79","29.95","345","0","0","0.00","0.00"
"04:14:56","51.3","45.3","79.9","29.95","345","0","0","0.00","0.00"
"04:19:56","51.2","45.5","80.6","29.95","345","0","0","0.00","0.00"
"04:24:59","51.3","45.9","81.8","29.95","345","0","0","0.00","0.00"
"04:29:57","51.3","46","82","29.95","345","0","0","0.00","0.00"
"04:34:56","51.4","46.1","82","29.95","345","0","0","0.00","0.00"
"04:39:56","51.3","46.1","82.4","29.95","345","0","0","0.00","0.00"
"04:44:59","51.3","46.4","83.4","29.95","345","0","0","0.00","0.00"
"04:49:58","51.3","46.3","83","29.95","345","0","0","0.00","0.00"
"04:54:57","51.3","46.3","83","29.95","345","0","0","0.00","0.00"
"04:59:56","51.3","46.3","83","29.96","345","0","0","0.00","0.00"
"05:04:56","51.3","46.3","83","29.96","345","0","0","0.00","0.00"
"05:09:56","51.1","46.4","83.9","29.96","345","0","0","0.00","0.00"
"05:14:56","51","46.4","84.4","29.96","345","0","0","0.00","0.00"
"05:19:59","51","46.3","84","29.96","345","0","0","0.00","0.00"
"05:24:58","50.9","46.3","84.3","29.96","345","0","0","0.00","0.00"
"05:29:57","50.6","46.3","85","29.96","345","0","0","0.00","0.00"
"05:34:56","50.4","46.2","85.4","29.96","345","0","0","0.00","0.00"
"05:39:56","50.1","46.1","86","29.96","345","0","0","0.00","0.00"
"05:44:59","50","46.1","86.6","29.97","345","0","0","0.00","0.00"
"05:49:58","49.8","46.1","87","29.97","345","0","0","0.00","0.00"
"05:54:58","49.7","46","87","29.97","345","0","0","0.00","0.00"
"05:59:57","49.6","46.2","88","29.97","345","0","0","0.00","0.00"
"06:04:58","49.4","46","88","29.97","346","0","0","0.00","0.00"
"06:09:58","49.2","45.8","88","29.97","346","0","0","0.00","0.00"
"06:14:58","49","45.9","88.9","29.98","346","0","0","0.00","0.00"
"06:19:57","49","45.9","89","29.98","346","0","0","0.00","0.00"
"06:24:56","49","45.9","89","29.98","9","0","0","0.00","0.00"
"06:29:59","49.1","46","89","29.99","9","0","0","0.00","0.00"
"06:34:58","49.2","46.1","89","29.99","38","0","0","0.00","0.00"
"06:39:58","49.6","46.5","89","29.99","38","0.3","2.4","0.00","0.00"
"06:44:57","49.9","46.5","88.2","29.99","38","0.3","2.4","0.00","0.00"
"06:49:56","50.1","46.7","88","29.98","306","0","0","0.00","0.00"
"06:54:58","50.2","46.8","88","29.98","45","0.3","2.4","0.00","0.00"
"06:59:57","50.6","47.2","88","29.98","45","0.9","3.6","0.00","0.00"
"07:04:57","51","47.6","87.9","29.98","45","0.9","2.4","0.00","0.00"
"07:09:57","51.4","47.7","87","29.98","45","0","1.2","0.00","0.00"
"07:14:56","51.9","48.2","86.9","29.99","45","0.5","3.6","0.00","0.00"
"07:19:59","52.6","48.2","85","29.99","24","1.5","4.8","0.00","0.00"
"07:24:57","53.4","48.7","84","29.99","22","0.3","3.5","0.00","0.00"
"07:29:56","54","49","83.1","29.99","22","0.3","3.6","0.00","0.00"
"07:34:59","54.7","49.1","81.5","29.99","22","0","1.2","0.00","0.00"
"07:39:59","55.5","49.8","80.9","29.99","22","0","1.2","0.00","0.00"
"07:44:57","56.3","49.9","79.1","29.99","20","0.1","2.4","0.00","0.00"
"07:49:56","56.9","49.3","75.6","29.99","17","0.2","2.3","0.00","0.00"
"07:54:59","57.5","48.7","72.5","29.99","18","0.8","3.6","0.00","0.00"
"07:59:58","58.1","49.1","72.1","29.99","18","0.7","3.6","0.00","0.00"
"08:04:58","58.5","48.8","70.2","29.99","325","1.4","6","0.00","0.00"
"08:09:57","59.1","49.8","71.1","29.99","282","0.6","3.6","0.00","0.00"
"08:14:56","59.8","49.2","68.1","29.99","274","1.2","3.6","0.00","0.00"
"08:19:59","60.5","49.5","66.8","29.99","223","1.1","6","0.00","0.00"
"08:24:57","61.1","48.9","64.4","29.99","323","1.3","6","0.00","0.00"
"08:29:59","61.4","49.2","64.3","29.99","353","1.3","6","0.00","0.00"
"08:34:57","61.6","48.9","62.9","29.99","358","1.8","6","0.00","0.00"
"08:39:56","62","49.1","62.8","29.99","305","0.6","3.6","0.00","0.00"
"08:44:58","62.4","48.8","61","29.99","355","3.1","12","0.00","0.00"
"08:49:57","62.5","48.2","59.6","29.99","352","3.3","15","0.00","0.00"
"08:54:59","62.6","48.4","59.7","29.99","357","1.9","6","0.00","0.00"
"08:59:57","62.8","49","60.5","29.99","332","1.5","4.8","0.00","0.00"
"09:04:56","63.1","49.2","60.5","29.99","344","2.4","7.2","0.00","0.00"
"09:09:59","63.5","49.7","60.7","29.99","356","1.4","7.2","0.00","0.00"
"09:14:58","64","49.5","59.3","29.99","3","1.1","3.6","0.00","0.00"
"09:19:57","64.5","50.7","60.8","29.99","357","0.7","2.4","0.00","0.00"
"09:24:59","65","50.2","58.7","29.99","346","2.6","7.2","0.00","0.00"
"09:29:57","65.3","51","59.9","29.99","3","1.1","5.8","0.00","0.00"
"09:34:59","65.7","50.1","57.1","29.99","321","1.6","6","0.00","0.00"
"09:39:58","65.8","50.1","56.9","29.99","340","3.3","7.2","0.00","0.00"
"09:44:56","65.7","50.2","57.4","29.99","330","3.5","6","0.00","0.00"
"09:49:59","65.7","50.4","57.7","29.99","318","1.2","4.6","0.00","0.00"
"09:54:58","66.2","50.8","57.7","29.99","318","1.2","3.6","0.00","0.00"
"09:59:57","66.8","50.9","56.7","29.99","327","1.1","4.8","0.00","0.00"
"10:04:56","67.4","51.2","56.1","29.98","334","1.2","7.2","0.00","0.00"
"10:09:56","67.7","51","55.2","29.98","338","2.3","7.2","0.00","0.00"
"10:14:59","67.6","50.7","54.8","29.98","347","3.4","12","0.00","0.00"
"10:19:57","67.7","51.6","56.4","29.98","56","1.5","4.8","0.00","0.00"
"10:24:56","68","52.3","57.2","29.98","299","0.7","6","0.00","0.00"
"10:29:58","68.3","51.7","55.3","29.98","325","3.2","9.6","0.00","0.00"
"10:34:57","68.3","51","54.2","29.98","305","3.9","9.6","0.00","0.00"
"10:39:56","68.3","51.7","55.3","29.98","330","2.9","8.4","0.00","0.00"
"10:44:58","68.8","51.5","54.1","29.98","318","3.7","8.4","0.00","0.00"
"10:49:56","68.8","51.2","53.4","29.98","339","2.9","6","0.00","0.00"
"10:54:58","69.1","52.3","55.2","29.98","335","1.9","8.4","0.00","0.00"
"10:59:57","69.4","52.3","54.5","29.98","317","1.6","4.8","0.00","0.00"
"11:04:56","69.7","52.3","54","29.97","301","2.3","6","0.00","0.00"
"11:09:56","69.8","52.2","53.6","29.97","313","1.8","7.2","0.00","0.00"
"11:14:59","70.2","54","56.6","29.97","282","2.6","10.8","0.00","0.00"
"11:19:57","70.6","53.5","54.8","29.97","324","3.2","8.4","0.00","0.00"
"11:24:59","70.4","53.2","54.6","29.97","316","1.7","7.2","0.00","0.00"
"11:29:57","70.8","53.6","54.6","29.97","301","3.1","10.8","0.00","0.00"
"11:34:59","71","52.9","52.7","29.96","225","3.3","8.4","0.00","0.00"
"11:39:58","71.3","53.1","52.7","29.96","299","3.2","12","0.00","0.00"
"11:44:56","70.9","53.1","53.5","29.96","322","2.6","10.8","0.00","0.00"
"11:49:58","71.4","54.3","54.9","29.96","311","2.1","6","0.00","0.00"
"11:54:56","71.6","54.2","54.3","29.96","336","4.3","12","0.00","0.00"
"11:59:58","71.8","53.4","52.3","29.96","328","2.6","6.9","0.00","0.00"
"12:04:58","71.5","52.5","51.3","29.95","332","5","13.2","0.00","0.00"
"12:09:57","71","52.1","51.2","29.95","270","3.4","7.2","0.00","0.00"
"12:14:58","71.4","52.6","51.6","29.95","275","2.5","7.2","0.00","0.00"
"12:19:56","72","54.1","53.3","29.95","5","0.9","4.6","0.00","0.00"
"12:24:59","72.5","54.3","52.9","29.95","348","2.8","10.8","0.00","0.00"
"12:29:56","72.7","53.8","51.5","29.95","338","2.9","10.4","0.00","0.00"
"12:34:59","72.7","54.8","53.5","29.94","308","4.2","9.6","0.00","0.00"
"12:39:57","72.1","53.8","52.6","29.94","249","3.1","9.2","0.00","0.00"
"12:44:56","72.3","54.6","53.8","29.94","247","2.4","7.2","0.00","0.00"
"12:49:58","73.2","55.1","53.1","29.93","338","3.3","7.2","0.00","0.00"
"12:54:56","74.2","54.8","50.7","29.93","301","3.3","7.2","0.00","0.00"
"12:59:58","73.2","54.1","51.3","29.93","294","3","7.2","0.00","0.00"
"13:04:58","73","53.4","50.4","29.93","335","3.3","9.6","0.00","0.00"
"13:09:57","73.5","54.1","50.9","29.93","6","2.9","9.2","0.00","0.00"
"13:14:57","74.2","54.5","50.4","29.93","90","1.4","6.9","0.00","0.00"
"13:19:56","74.4","53.8","48.7","29.93","356","4.3","13.2","0.00","0.00"
"13:24:56","74","52.7","47.5","29.93","294","3.5","7.2","0.00","0.00"
"13:29:56","73.9","52.5","47.1","29.93","284","3.9","8.4","0.00","0.00"
"13:34:58","74.2","52.5","46.8","29.93","263","2.4","7.2","0.00","0.00"
"13:39:57","74.5","53.3","47.7","29.93","303","1.9","6","0.00","0.00"
"13:44:59","75.4","54.4","48.2","29.93","246","3.6","8.4","0.00","0.00"
"13:49:57","75.9","53","45","29.92","345","6.3","13.2","0.00","0.00"
"13:54:59","75.3","53.9","47.3","29.92","337","1.8","8.1","0.00","0.00"
"13:59:57","74.9","52.8","46.3","29.92","309","3.4","10.8","0.00","0.00"
"14:04:56","74.8","53","46.6","29.92","247","3.7","10.8","0.00","0.00"
"14:09:59","75.4","53.4","46.3","29.92","253","3.9","8.4","0.00","0.00"
"14:14:58","75.6","53.1","45.6","29.92","319","4.2","12","0.00","0.00"
"14:19:56","76.5","53.1","44.3","29.91","314","3.6","12","0.00","0.00"
"14:24:58","76.8","53.3","44.3","29.91","335","3.4","12","0.00","0.00"
"14:29:56","76.5","52.8","43.8","29.91","332","3.9","12","0.00","0.00"
"14:34:58","76.8","53.6","44.7","29.91","336","3.2","8.1","0.00","0.00"
"14:39:57","76.9","53.9","45","29.91","349","1.7","8.4","0.00","0.00"
"14:44:56","76.6","54","45.6","29.91","340","2.8","10.8","0.00","0.00"
"14:49:58","77.1","53.5","44.2","29.91","297","3","7.2","0.00","0.00"
"14:54:56","76.9","53.6","44.6","29.91","332","2.3","7.2","0.00","0.00"
"14:59:58","76.9","53.1","43.7","29.91","307","3.7","12","0.00","0.00"
"15:04:58","77.2","53.2","43.4","29.90","326","2.9","8.4","0.00","0.00"
"15:09:57","76.9","52.3","42.4","29.90","326","3.8","10.8","0.00","0.00"
"15:14:59","76.7","53.1","43.9","29.90","253","3.7","10.4","0.00","0.00"
"15:19:57","76.6","52.7","43.4","29.90","218","2.4","6","0.00","0.00"
"15:24:56","77.4","53.8","44.1","29.90","349","4.4","12","0.00","0.00"
"15:29:58","77.8","54.2","44.1","29.90","352","3.6","10.8","0.00","0.00"
"15:34:56","78.1","54.7","44.7","29.90","337","3.3","15.6","0.00","0.00"
"15:39:59","77.8","54.1","43.9","29.90","348","4","16.1","0.00","0.00"
"15:44:57","77.3","53.4","43.7","29.90","348","2.3","8.4","0.00","0.00"
"15:49:59","76.7","52.8","43.4","29.90","298","2.7","8.1","0.00","0.00"
"15:54:57","77.1","53.8","44.6","29.90","292","3.2","7.2","0.00","0.00"
"15:59:59","77.4","53.5","43.5","29.90","301","1.7","6","0.00","0.00"
"16:04:59","78.3","54.7","44.2","29.89","342","3","10.8","0.00","0.00"
"16:09:58","78.3","52","40","29.89","317","4.2","9.2","0.00","0.00"
"16:14:57","77.8","52.7","41.7","29.89","337","4.7","13.2","0.00","0.00"
"16:19:56","77.8","53.2","42.5","29.89","0","3.9","12.7","0.00","0.00"
"16:24:58","77.3","52.1","41.6","29.89","315","3.8","12","0.00","0.00"
"16:29:56","78","54.5","44.4","29.89","4","2.9","10.8","0.00","0.00"
"16:34:58","78.1","52.6","41.2","29.89","343","6.2","15","0.00","0.00"
"16:39:58","77.7","52.3","41.4","29.89","336","3.8","13.2","0.00","0.00"
"16:44:56","77.4","52.3","41.7","29.89","252","3.5","8.4","0.00","0.00"
"16:49:58","77.4","52","41.2","29.89","331","4.3","10.8","0.00","0.00"
"16:54:57","77.6","53","42.6","29.89","352","5.1","13.2","0.00","0.00"
"16:59:59","77.5","52.9","42.5","29.89","349","3.2","10.4","0.00","0.00"
"17:04:58","77.7","53.4","43","29.88","334","3.5","13.2","0.00","0.00"
"17:09:57","77.7","53.2","42.6","29.88","356","3.7","10.8","0.00","0.00"
"17:14:56","77.4","52.9","42.7","29.88","351","3.7","13.2","0.00","0.00"
"17:19:58","77.1","52.9","43","29.88","31","4.3","16.1","0.00","0.00"
"17:24:57","76.9","53.3","44","29.88","320","3.4","9.6","0.00","0.00"
"17:29:59","77.1","53.8","44.6","29.88","343","2.4","9.2","0.00","0.00"
"17:34:57","76.9","53.2","43.8","29.88","337","3.1","8.4","0.00","0.00"
"17:39:59","76.8","53.8","44.9","29.88","341","3","7.2","0.00","0.00"
"17:44:58","76.7","53.9","45.2","29.88","338","2.3","6","0.00","0.00"
"17:49:56","76.5","52.8","43.9","29.88","332","2.6","6","0.00","0.00"
"17:54:58","76.5","54","45.6","29.88","305","0.6","3.6","0.00","0.00"
"17:59:56","76.6","53.8","45.3","29.88","340","2.7","7.2","0.00","0.00"
"18:04:56","76.3","53.2","44.6","29.88","345","3.7","7.2","0.00","0.00"
"18:09:56","76.1","52.7","44.1","29.88","350","2","5.8","0.00","0.00"
"18:14:59","75.9","53.8","46.4","29.88","350","0.6","3.6","0.00","0.00"
"18:19:57","76","53.2","45.1","29.87","345","2","4.8","0.00","0.00"
"18:24:56","76","53.9","46.4","29.87","352","1.8","6","0.00","0.00"
"18:29:58","75.7","53.6","46.3","29.87","335","2.6","7.2","0.00","0.00"
"18:34:57","75.6","53.7","46.5","29.87","314","1","3.6","0.00","0.00"
"18:39:56","75.5","53.6","46.5","29.87","315","0.3","2.3","0.00","0.00"
"18:44:59","75.3","53.8","47.1","29.87","321","0.9","3.6","0.00","0.00"
"18:49:58","75.3","54.1","47.7","29.87","328","0.6","2.4","0.00","0.00"
"18:54:57","75.1","53.5","47","29.87","333","1.1","3.6","0.00","0.00"
"18:59:59","75","52.8","46","29.88","343","2.3","6","0.00","0.00"
"19:04:59","74.7","52.7","46.3","29.88","0","2.1","6","0.00","0.00"
"19:09:58","74.5","52.6","46.3","29.88","355","0.9","4.6","0.00","0.00"
"19:14:57","74.3","53.1","47.6","29.88","353","0.6","2.4","0.00","0.00"
"19:19:56","74","52.8","47.6","29.88","8","1.2","3.6","0.00","0.00"
"19:24:58","73.7","52.7","47.9","29.88","340","1.2","3.6","0.00","0.00"
"19:29:57","73.4","52.5","48.1","29.88","293","1.4","4.8","0.00","0.00"
"19:34:56","73.1","52.5","48.5","29.88","304","1.6","4.6","0.00","0.00"
"19:39:56","72.8","52.5","49","29.88","295","0.7","3.6","0.00","0.00"
"19:44:56","72.6","52.1","48.7","29.88","290","1","3.6","0.00","0.00"
"19:49:59","72.3","52.5","49.8","29.88","290","0.5","2.4","0.00","0.00"
"19:54:57","71.9","53.3","52","29.88","19","1","2.4","0.00","0.00"
"19:59:56","71.3","53.2","52.7","29.88","21","0.1","2.3","0.00","0.00"
"20:04:55","70.7","53.2","53.9","29.88","21","0.3","2.4","0.00","0.00"
"20:09:59","70.2","52.9","54.2","29.88","333","0","0","0.00","0.00"
"20:14:59","69.7","52.9","55.3","29.88","333","0","0","0.00","0.00"
"20:19:58","69.2","52.8","56","29.88","333","0","0","0.00","0.00"
"20:24:58","68.7","52.8","56.8","29.88","333","0.1","1.2","0.00","0.00"
"20:29:57","68.2","52.5","57.2","29.88","333","0","0","0.00","0.00"
"20:34:56","67.8","52.5","58","29.88","333","0","1.2","0.00","0.00"
"20:39:56","67.4","52.4","58.5","29.88","333","0","1.2","0.00","0.00"
"20:44:56","67.1","52.5","59.3","29.88","333","0","0","0.00","0.00"
"20:49:59","66.7","52.5","60.2","29.88","333","0","0","0.00","0.00"
"20:54:58","66.3","52.4","61","29.88","333","0","0","0.00","0.00"
"20:59:57","65.8","52.5","62.2","29.88","333","0","0","0.00","0.00"
"21:04:58","65.2","52.5","63.4","29.88","333","0","0","0.00","0.00"
"21:09:58","64.7","52.5","64.5","29.88","333","0","0","0.00","0.00"
"21:14:59","64.3","52.2","64.9","29.88","333","0","0","0.00","0.00"
"21:19:59","64","52.6","66.7","29.88","333","0","0","0.00","0.00"
"21:24:58","63.7","52.5","67","29.88","333","0","0","0.00","0.00"
"21:29:58","63.4","52.5","67.6","29.89","333","0","0","0.00","0.00"
"21:34:58","63","52.3","67.9","29.89","333","0","0","0.00","0.00"
"21:39:59","62.7","52.5","69.3","29.89","333","0","0","0.00","0.00"
"21:44:59","62.4","52.5","70","29.89","333","0","0","0.00","0.00"
"21:49:59","62.1","52.2","70","29.89","333","0","0","0.00","0.00"
"21:54:59","61.8","51.9","70","29.89","333","0","0","0.00","0.00"
"21:59:59","61.5","51.6","70.2","29.90","333","0","0","0.00","0.00"
"22:04:56","61.2","51.7","71.1","29.90","333","0","0","0.00","0.00"
"22:09:59","61","52.1","72.4","29.90","333","0","0","0.00","0.00"
"22:14:56","60.9","52.2","73.1","29.90","333","0","0","0.00","0.00"
"22:19:56","60.8","52.2","73.4","29.90","333","0","0","0.00","0.00"
"22:24:56","60.7","52","73","29.90","333","0","0","0.00","0.00"
"22:29:59","60.5","52.1","73.7","29.90","333","0","0","0.00","0.00"
"22:34:59","60.4","52.1","74","29.90","333","0","0","0.00","0.00"
"22:39:55","60.1","51.9","74.3","29.90","333","0","0","0.00","0.00"
"22:44:59","59.8","51.6","74.1","29.90","333","0","0","0.00","0.00"
"22:49:56","59.7","51.4","74","29.90","333","0","0","0.00","0.00"
"22:54:56","59.5","51.3","74.3","29.90","333","0","0","0.00","0.00"
"22:59:59","59.3","51.4","75.2","29.90","333","0","0","0.00","0.00"
"23:04:56","59.1","51.3","75.3","29.90","333","0","0","0.00","0.00"
"23:09:56","58.9","51","75.2","29.90","333","0","0","0.00","0.00"
"23:14:57","58.7","51.1","75.9","29.90","333","0","0","0.00","0.00"
"23:19:57","58.5","50.9","75.8","29.90","333","0","0","0.00","0.00"
"23:24:56","58.3","50.8","76","29.90","333","0","0","0.00","0.00"
"23:29:56","58.1","50.6","76","29.90","333","0","0","0.00","0.00"
"23:34:56","57.9","50.6","76.7","29.90","333","0","0","0.00","0.00"
"23:39:56","57.8","50.3","76.2","29.90","333","0","0","0.00","0.00"
"23:44:56","57.6","50.4","77","29.90","333","0","0","0.00","0.00"
"23:49:57","57.5","50.3","77","29.90","333","0","0","0.00","0.00"
"23:54:57","57.4","50.2","77.1","29.90","333","0","0","0.00","0.00"
